OBJECT XE

基本信息
目录编号:
62298
目录名称:
OBJECT XE
国际标识:
1998-067XE
轨道中心:
EARTH
物体状态:
已陨落(2025-04-04)
发射日期:
1998-11-20 UTC
国别:
日本 (JP)
轨道信息
数据来源: 国际轨道数据
星历时间: 2025-03-30T21:12:14+0800
半长轴: 6566.92km
偏心率: 0.0008675
轨道倾角: 51.602°
近地点辐角: 257.816°
升交点赤经: 320.881°
平近点角: 102.189°
近地点: 183.088km
远地点: 194.482km
周期: 88.268分钟
每日圈数: 16.31399
详细信息
发射场:
TTMTR
轨道高度:
LEO
数据来源:
AOE Integration Group
参考系:
TEME
时间系统:
UTC
历元类型:
SGP4
2D轨道图
3D轨道图
轨道高度分析图
轨道倾角分析图
轨道综合分析图
查看轨道综合分析图